37P/Forbes (2024)

Japanese version
Home page
Updated on February 10, 2025

---------------------------------------------------------------------

* Profile

* Pictures

* Orbital Elements

Epoch 2024 Oct. 17.0 TT = JDT 2460600.5
T 2024 Oct. 11.25269 TT                                 Rudenko
q   1.6178290            (2000.0)            P               Q
n   0.15295933     Peri.  330.06688     +0.25667235     +0.96012201
a   3.4627308      Node   314.54944     -0.85301101     +0.17112060
e   0.5327881      Incl.    8.94755     -0.45441338     +0.22109607
P   6.44
>From 1645 observations 2011 Feb. 8-2024 Sept. 1, mean residual 0".7.
     Nongravitational parameters A1 = +0.61, A2 = -0.0510.

* Finding Charts

* Magnitudes Graph

        m1 = 6.5 + 5 log d + 25 log r(t - 30)

---------------------------------------------------------------------

The orbital elements are published on M.P.E.C. 2024-R10.
The charts are made with StellaNavigator Ver.10 (AstroArts).
The magnitudes graphs are made with Comet for Windows.

---------------------------------------------------------------------

Copyright(C) Seiichi Yoshida (comet@aerith.net). All rights reserved.